This demonstration page uses our WeatherBlox Daily Observations layout. Learn more.

Left ArrowRight Arrow

34.16533, -84.80231

Hourly Observations for August 30, 2020

Temp ( °F °C ) Dew Point ( °F °C ) Humidity (%) Winds ( mph kmh ) Pressure ( in mb ) Visibility ( mi km ) Precip ( " mm )
12:53 am 00:53 Clear 78 25.6 74 23.3 87 87 VRB 3 6 29.81 1009 9 14 0.00 0.00
1:53 am 01:53 Clear 77 25 74 23.3 90 90 Calm 29.82 1010 8 13 0.00 0.00
2:44 am 02:44 Mostly Cloudy with Mist and Fog 76 24.4 73 22.8 91 91 Calm 29.84 1011 6 10 0.00 0.00
2:53 am 02:53 Partly Cloudy with Mist and Fog 75 23.9 73 22.8 94 94 S 3 6 29.81 1010 6 10 0.00 0.00
3:53 am 03:53 Mostly Cloudy with Mist and Fog 76 24.4 73 22.8 91 91 Calm 29.83 1010 6 10 0.00 0.00
4:39 am 04:39 Cloudy with Mist and Fog 76 24.4 74 23.3 94 94 Calm 29.85 1011 6 10 0.00 0.00
4:53 am 04:53 Cloudy with Mist and Fog 77 25 74 23.3 90 90 Calm 29.84 1011 6 10 0.00 0.00
5:53 am 05:53 Cloudy 77 25 74 23.3 90 90 Calm 29.85 1011 7 11 0.00 0.00
6:19 am 06:19 Cloudy with Mist and Fog 77 25 74 23.3 90 90 Calm 29.86 1011 6 10 0.00 0.00
6:53 am 06:53 Cloudy 77 25 74 23.3 90 90 Calm 29.85 1011 7 11 0.00 0.00
7:29 am 07:29 Cloudy with Mist and Fog 77 25 74 23.3 90 90 Calm 29.87 1011 5 8 0.00 0.00
7:53 am 07:53 Cloudy with Mist and Fog 78 25.6 74 23.3 87 87 Calm 29.85 1011 6 10 0.00 0.00
8:22 am 08:22 Cloudy with Mist and Fog 78 25.6 74 23.3 87 87 Calm 29.87 1011 6 10 0.00 0.00
8:53 am 08:53 Cloudy 79 26.1 75 23.9 88 88 Calm 29.85 1011 7 11 0.00 0.00
9:08 am 09:08 Cloudy 80 26.7 74 23.3 82 82 Calm 29.87 1011 8 13 0.00 0.00
9:53 am 09:53 Mostly Cloudy 82 27.8 75 23.9 79 79 VRB 3 6 29.85 1011 8 13 0.00 0.00
10:40 am 10:40 Mostly Cloudy 83 28.3 74 23.3 74 74 NNW 7 11 29.85 1011 10 16 0.00 0.00
10:53 am 10:53 Mostly Cloudy 84 28.9 74 23.3 72 72 NW 5 7 29.85 1011 10 16 0.00 0.00
11:43 am 11:43 Partly Cloudy 87 30.6 74 23.3 65 65 VRB 3 6 29.85 1011 10 16 0.00 0.00
11:53 am 11:53 Partly Cloudy 86 30 74 23.3 67 67 Calm 29.85 1011 10 16 0.00 0.00
12:53 pm 12:53 Mostly Sunny 88 31.1 74 23.3 63 63 SE 3 6 29.83 1010 10 16 0.00 0.00
1:53 pm 13:53 Sunny 90 32.2 73 22.8 58 58 VRB 3 6 29.82 1010 10 16 0.00 0.00
2:53 pm 14:53 Sunny 92 33.3 72 22.2 52 52 Calm 29.79 1009 10 16 0.00 0.00
3:53 pm 15:53 Sunny 93 33.9 72 22.2 50 50 S 6 9 29.75 1008 10 16 0.00 0.00
4:53 pm 16:53 Sunny 90 32.2 71 21.7 54 54 S 3 6 29.75 1007 10 16 0.00 0.00
5:53 pm 17:53 Sunny 90 32.2 74 23.3 59 59 Calm 29.75 1008 10 16 0.00 0.00
6:34 pm 18:34 Sunny with Nearby Thunderstorms 83 28.3 71 21.7 67 67 VRB 3 6 29.78 1009 10 16 0.00 0.00
6:53 pm 18:53 Partly Cloudy 82 27.8 70 21.1 67 67 Calm 29.79 1009 10 16 0.00 0.00
7:16 pm 19:16 Cloudy with Nearby Thunderstorms 77 25 72 22.2 85 85 VRB 5 7 29.81 1009 5 8 0.02 0.51
7:35 pm 19:35 Mostly Cloudy with Thunderstorms 76 24.4 71 21.7 85 85 Calm 29.80 1009 10 16 0.02 0.51
7:50 pm 19:50 Partly Cloudy with Nearby Thunderstorms 75 24 72 22 89 89 Calm 29.80 1009 5 8 0.03 0.76
7:53 pm 19:53 Partly Cloudy with Light Rain 75 23.9 71 21.7 88 88 Calm 29.79 1009 4 6 0.04 1.02
8:04 pm 20:04 Mostly Cloudy with Rain 74 23.3 72 22.2 94 94 Calm 29.80 1009 3 4 0.04 1.02
8:13 pm 20:13 Mostly Cloudy with Light Rain 75 23.9 72 22.2 90 90 Calm 29.81 1010 5 8 0.06 1.52
8:53 pm 20:53 Partly Cloudy 75 23.9 72 22.2 90 90 SE 7 11 29.83 1010 10 16 0.07 1.78
9:53 pm 21:53 Cloudy 75 23.9 71 21.7 88 88 SE 5 7 29.85 1011 10 16 0.00 0.00
10:53 pm 22:53 Clear 74 23.3 70 21.1 88 88 E 3 6 29.84 1010 10 16 0.00 0.00
11:53 pm 23:53 Clear 74 23.3 71 21.7 91 91 Calm 29.83 1010 10 16 0.00 0.00

Powered by AerisWeather